DLH5TW EDDV-EDDF

Flight info

Callsign DLH5TW
Flight time 0h 39m
Altitude 17000
Route TOLTA1F TOLTA T154 ROBAR T152 KERAX KERAX5D
Aircraft A320/M-SDE2E3FGIJ1LORWXYZ/HB1

Departure

Time 2026-04-15 07:50
Airport Hannover Airport (EDDV)

Arrival

Time 2026-04-15 08:29
Airport Frankfurt Main Airport (EDDF)
Time Latitude Longitude Altitude Speed Heading
2026-04-15 07:26 52.45838 9.69392 179 ft 0 kts 30°
2026-04-15 07:40 52.45817 9.69372 179 ft 4 kts 30°
2026-04-15 07:40 52.45794 9.69350 179 ft 4 kts 25°
2026-04-15 07:40 52.45779 9.69342 178 ft 4 kts 353°
2026-04-15 07:40 52.45758 9.69372 178 ft 3 kts 276°
2026-04-15 07:41 52.45758 9.69380 178 ft 0 kts 272°
2026-04-15 07:44 52.45758 9.69379 178 ft 0 kts 272°
2026-04-15 07:45 52.45758 9.69362 178 ft 3 kts 272°
2026-04-15 07:45 52.45759 9.69316 178 ft 6 kts 272°
2026-04-15 07:45 52.45757 9.69226 178 ft 10 kts 258°
2026-04-15 07:45 52.45703 9.69151 178 ft 11 kts 189°
2026-04-15 07:46 52.45628 9.69183 179 ft 12 kts 125°
2026-04-15 07:46 52.45617 9.69329 179 ft 14 kts 92°
2026-04-15 07:46 52.45612 9.69498 179 ft 16 kts 92°
2026-04-15 07:46 52.45607 9.69692 179 ft 18 kts 92°
2026-04-15 07:47 52.45600 9.69912 179 ft 20 kts 92°
2026-04-15 07:47 52.45593 9.70156 179 ft 22 kts 92°
2026-04-15 07:47 52.45586 9.70420 179 ft 24 kts 92°
2026-04-15 07:47 52.45579 9.70662 179 ft 19 kts 93°
2026-04-15 07:48 52.45573 9.70850 179 ft 16 kts 93°
2026-04-15 07:48 52.45557 9.71046 179 ft 18 kts 115°
2026-04-15 07:48 52.45457 9.71108 182 ft 13 kts 185°
2026-04-15 07:48 52.45403 9.71084 185 ft 6 kts 234°
2026-04-15 07:49 52.45402 9.71030 190 ft 5 kts 274°
2026-04-15 07:49 52.45413 9.70717 183 ft 66 kts 272°
2026-04-15 07:49 52.45441 9.69575 196 ft 131 kts 272°
2026-04-15 07:49 52.45482 9.67839 420 ft 161 kts 270°
2026-04-15 07:50 52.45537 9.66009 1165 ft 162 kts 269°
2026-04-15 07:50 52.45575 9.64103 1716 ft 177 kts 269°
2026-04-15 07:50 52.45606 9.61972 2106 ft 198 kts 269°
2026-04-15 07:50 52.45657 9.59595 2710 ft 214 kts 270°
2026-04-15 07:51 52.45725 9.57121 3644 ft 219 kts 271°
2026-04-15 07:51 52.45579 9.54655 4515 ft 219 kts 247°
2026-04-15 07:51 52.44714 9.52642 5370 ft 219 kts 217°
2026-04-15 07:51 52.43407 9.51321 6214 ft 222 kts 209°
2026-04-15 07:52 52.42055 9.50053 7052 ft 226 kts 209°
2026-04-15 07:52 52.40678 9.48766 7828 ft 230 kts 210°
2026-04-15 07:52 52.39270 9.47447 8582 ft 236 kts 210°
2026-04-15 07:52 52.37829 9.46096 9366 ft 240 kts 211°
2026-04-15 07:53 52.36369 9.44722 10199 ft 244 kts 211°
2026-04-15 07:53 52.34891 9.43328 10993 ft 246 kts 212°
2026-04-15 07:53 52.33317 9.42202 11798 ft 250 kts 196°
2026-04-15 07:53 52.31547 9.41857 12314 ft 270 kts 179°
2026-04-15 07:54 52.29592 9.42143 12619 ft 294 kts 176°
2026-04-15 07:54 52.27476 9.42479 12906 ft 317 kts 176°
2026-04-15 07:54 52.25204 9.42836 13264 ft 336 kts 176°
2026-04-15 07:54 52.22844 9.43200 13943 ft 344 kts 177°
2026-04-15 07:55 52.20451 9.43568 14636 ft 348 kts 177°
2026-04-15 07:55 52.18020 9.43942 15308 ft 353 kts 177°
2026-04-15 07:55 52.13109 9.44677 16617 ft 361 kts 177°
2026-04-15 07:56 52.10594 9.45048 17125 ft 365 kts 177°
2026-04-15 07:56 52.08062 9.45419 17245 ft 363 kts 177°
2026-04-15 07:56 52.05599 9.45789 17431 ft 350 kts 177°
2026-04-15 07:56 52.03185 9.46148 18170 ft 349 kts 177°
2026-04-15 07:57 52.00777 9.46501 18864 ft 351 kts 177°
2026-04-15 07:57 51.98308 9.46864 19198 ft 354 kts 177°
2026-04-15 07:57 51.95858 9.47228 19278 ft 354 kts 177°
2026-04-15 07:57 51.93404 9.47595 19298 ft 354 kts 177°
2026-04-15 07:58 51.90951 9.47959 19298 ft 354 kts 177°
2026-04-15 07:58 51.88499 9.48321 19298 ft 354 kts 177°
2026-04-15 07:58 51.86046 9.48681 19299 ft 354 kts 178°
2026-04-15 07:58 51.83607 9.48519 19304 ft 350 kts 191°
2026-04-15 07:59 51.81194 9.47944 19303 ft 350 kts 191°
2026-04-15 07:59 51.78783 9.47357 19298 ft 350 kts 191°
2026-04-15 07:59 51.76372 9.46764 19300 ft 350 kts 191°
2026-04-15 07:59 51.73963 9.46165 19297 ft 350 kts 191°
2026-04-15 08:00 51.71554 9.45563 19300 ft 350 kts 191°
2026-04-15 08:00 51.69145 9.44966 19296 ft 350 kts 191°
2026-04-15 08:00 51.66740 9.44376 19300 ft 350 kts 191°
2026-04-15 08:00 51.64328 9.43787 19290 ft 351 kts 191°
2026-04-15 08:01 51.61912 9.43202 19293 ft 351 kts 191°
2026-04-15 08:01 51.59494 9.42619 19291 ft 351 kts 191°
2026-04-15 08:01 51.57074 9.42035 19294 ft 352 kts 191°
2026-04-15 08:01 51.54651 9.41444 19290 ft 352 kts 191°
2026-04-15 08:02 51.52229 9.40853 19295 ft 352 kts 191°
2026-04-15 08:02 51.49807 9.40264 19296 ft 352 kts 191°
2026-04-15 08:02 51.47392 9.39662 19299 ft 351 kts 193°
2026-04-15 08:02 51.45102 9.38390 19298 ft 348 kts 206°
2026-04-15 08:03 51.42893 9.36799 19292 ft 348 kts 206°
2026-04-15 08:03 51.40684 9.35199 19288 ft 349 kts 206°
2026-04-15 08:03 51.38475 9.33594 19290 ft 349 kts 206°
2026-04-15 08:03 51.36264 9.31991 19288 ft 349 kts 206°
2026-04-15 08:04 51.34053 9.30392 19285 ft 349 kts 206°
2026-04-15 08:04 51.31839 9.28791 19294 ft 349 kts 206°
2026-04-15 08:04 51.29622 9.27193 19304 ft 349 kts 206°
2026-04-15 08:04 51.27405 9.25601 19307 ft 349 kts 206°
2026-04-15 08:05 51.25187 9.24009 19311 ft 349 kts 206°
2026-04-15 08:05 51.22970 9.22416 19312 ft 349 kts 206°
2026-04-15 08:05 51.20754 9.20819 19295 ft 350 kts 206°
2026-04-15 08:05 51.18567 9.19244 19293 ft 350 kts 206°
2026-04-15 08:06 51.16318 9.17626 19298 ft 350 kts 206°
2026-04-15 08:06 51.14096 9.16031 19296 ft 350 kts 206°
2026-04-15 08:06 51.11876 9.14443 19297 ft 351 kts 206°
2026-04-15 08:06 51.09649 9.12857 19299 ft 351 kts 206°
2026-04-15 08:07 51.07419 9.11275 19299 ft 351 kts 206°
2026-04-15 08:07 51.05190 9.09693 19301 ft 351 kts 206°
2026-04-15 08:07 51.03023 9.08154 19218 ft 341 kts 206°
2026-04-15 08:07 51.00876 9.06631 18935 ft 336 kts 206°
2026-04-15 08:08 50.98751 9.05124 18600 ft 333 kts 206°
2026-04-15 08:08 50.96612 9.03607 18185 ft 331 kts 206°
2026-04-15 08:08 50.94519 9.02123 17816 ft 329 kts 206°
2026-04-15 08:08 50.92465 9.00665 17464 ft 326 kts 206°
2026-04-15 08:09 50.90400 8.99200 17122 ft 324 kts 206°
2026-04-15 08:09 50.88352 8.97746 16786 ft 321 kts 206°
2026-04-15 08:09 50.86319 8.96306 16455 ft 319 kts 206°
2026-04-15 08:09 50.84301 8.94882 16132 ft 316 kts 206°
2026-04-15 08:10 50.82298 8.93468 15820 ft 314 kts 206°
2026-04-15 08:10 50.80309 8.92064 15506 ft 312 kts 206°
2026-04-15 08:10 50.78334 8.90675 15201 ft 310 kts 206°
2026-04-15 08:10 50.76374 8.89295 14893 ft 307 kts 206°
2026-04-15 08:11 50.74427 8.87928 14596 ft 305 kts 206°
2026-04-15 08:11 50.72494 8.86572 14306 ft 303 kts 206°
2026-04-15 08:11 50.70578 8.85229 14000 ft 301 kts 206°
2026-04-15 08:11 50.68671 8.83894 13651 ft 299 kts 206°
2026-04-15 08:12 50.66772 8.82567 13296 ft 298 kts 205°
2026-04-15 08:12 50.64882 8.81249 12945 ft 296 kts 205°
2026-04-15 08:12 50.62998 8.79934 12594 ft 295 kts 205°
2026-04-15 08:12 50.61129 8.78629 12247 ft 294 kts 205°
2026-04-15 08:13 50.59261 8.77325 12000 ft 294 kts 205°
2026-04-15 08:13 50.57395 8.76023 11748 ft 293 kts 205°
2026-04-15 08:13 50.55534 8.74725 11497 ft 292 kts 205°
2026-04-15 08:13 50.53677 8.73435 11321 ft 292 kts 204°
2026-04-15 08:14 50.51819 8.72144 11289 ft 292 kts 204°
2026-04-15 08:14 50.49958 8.70854 11290 ft 292 kts 204°
2026-04-15 08:14 50.48097 8.69566 11294 ft 293 kts 204°
2026-04-15 08:14 50.46233 8.68277 11297 ft 293 kts 204°
2026-04-15 08:15 50.44394 8.67006 11297 ft 293 kts 204°
2026-04-15 08:15 50.42532 8.65718 11300 ft 292 kts 204°
2026-04-15 08:15 50.40671 8.64426 11296 ft 293 kts 204°
2026-04-15 08:15 50.38785 8.63120 11300 ft 292 kts 204°
2026-04-15 08:16 50.36927 8.61838 11300 ft 292 kts 204°
2026-04-15 08:16 50.35061 8.60553 11296 ft 293 kts 204°
2026-04-15 08:16 50.33199 8.59268 11302 ft 293 kts 204°
2026-04-15 08:16 50.31336 8.57982 11294 ft 293 kts 205°
2026-04-15 08:17 50.29476 8.56701 11296 ft 292 kts 205°
2026-04-15 08:17 50.27641 8.55439 11298 ft 292 kts 204°
2026-04-15 08:17 50.25782 8.54164 11301 ft 292 kts 204°
2026-04-15 08:17 50.23893 8.52872 11302 ft 292 kts 204°
2026-04-15 08:18 50.22031 8.51598 11298 ft 292 kts 204°
2026-04-15 08:18 50.20168 8.50324 11289 ft 291 kts 205°
2026-04-15 08:18 50.18320 8.49058 10963 ft 289 kts 204°
2026-04-15 08:18 50.16505 8.47815 10592 ft 288 kts 204°
2026-04-15 08:19 50.14651 8.46540 10233 ft 287 kts 205°
2026-04-15 08:19 50.12948 8.44927 9837 ft 286 kts 218°
2026-04-15 08:19 50.11531 8.42829 9452 ft 284 kts 230°
2026-04-15 08:19 50.10419 8.40306 9083 ft 282 kts 242°
2026-04-15 08:20 50.09653 8.37514 8712 ft 280 kts 249°
2026-04-15 08:20 50.08967 8.34645 8319 ft 278 kts 249°
2026-04-15 08:20 50.08299 8.31878 7934 ft 277 kts 249°
2026-04-15 08:20 50.07620 8.29081 7561 ft 275 kts 249°
2026-04-15 08:21 50.06945 8.26303 7194 ft 273 kts 249°
2026-04-15 08:21 50.06274 8.23543 6820 ft 272 kts 248°
2026-04-15 08:21 50.05606 8.20806 6432 ft 270 kts 248°
2026-04-15 08:21 50.04928 8.18077 5993 ft 270 kts 245°
2026-04-15 08:22 50.03847 8.15777 5739 ft 259 kts 217°
2026-04-15 08:22 50.02270 8.14662 5565 ft 246 kts 186°
2026-04-15 08:22 50.00619 8.14831 5396 ft 233 kts 166°
2026-04-15 08:22 49.99084 8.15394 5274 ft 222 kts 164°
2026-04-15 08:23 49.97637 8.16101 5146 ft 214 kts 148°
2026-04-15 08:23 49.96643 8.17716 4907 ft 210 kts 111°
2026-04-15 08:23 49.96414 8.19926 4625 ft 209 kts 84°
2026-04-15 08:23 49.96936 8.22006 4360 ft 209 kts 62°
2026-04-15 08:24 49.97527 8.24081 4059 ft 211 kts 69°
2026-04-15 08:24 49.98034 8.26172 3770 ft 202 kts 70°
2026-04-15 08:24 49.98517 8.28176 3477 ft 194 kts 70°
2026-04-15 08:24 49.98976 8.30075 3222 ft 181 kts 70°
2026-04-15 08:25 49.99407 8.31861 2946 ft 173 kts 70°
2026-04-15 08:25 49.99817 8.33556 2702 ft 161 kts 70°
2026-04-15 08:25 50.00200 8.35140 2473 ft 152 kts 70°
2026-04-15 08:25 50.00564 8.36648 2251 ft 147 kts 71°
2026-04-15 08:26 50.00914 8.38100 2043 ft 141 kts 71°
2026-04-15 08:26 50.01259 8.39531 1821 ft 140 kts 71°
2026-04-15 08:26 50.01598 8.40941 1645 ft 140 kts 70°
2026-04-15 08:26 50.01938 8.42353 1432 ft 138 kts 70°
2026-04-15 08:27 50.02276 8.43756 1221 ft 139 kts 70°
2026-04-15 08:27 50.02612 8.45155 976 ft 138 kts 70°
2026-04-15 08:27 50.02949 8.46563 782 ft 139 kts 70°
2026-04-15 08:27 50.03293 8.47970 617 ft 139 kts 69°
2026-04-15 08:28 50.03626 8.49367 411 ft 137 kts 69°
2026-04-15 08:28 50.03848 8.50280 325 ft 130 kts 71°
2026-04-15 08:28 50.04111 8.51411 328 ft 88 kts 70°
2026-04-15 08:28 50.04268 8.52069 339 ft 51 kts 70°
2026-04-15 08:29 50.04356 8.52449 353 ft 27 kts 70°
2026-04-15 08:29 50.04395 8.52719 350 ft 25 kts 89°
2026-04-15 08:29 50.04378 8.52988 352 ft 25 kts 99°
2026-04-15 08:29 50.04352 8.53239 362 ft 21 kts 95°
2026-04-15 08:30 50.04381 8.53434 372 ft 17 kts 70°
2026-04-15 08:30 50.04401 8.53607 375 ft 17 kts 84°
2026-04-15 08:30 50.04414 8.53801 375 ft 19 kts 84°
2026-04-15 08:30 50.04428 8.54017 375 ft 21 kts 84°
2026-04-15 08:31 50.04444 8.54254 375 ft 21 kts 84°
2026-04-15 08:31 50.04452 8.54461 370 ft 21 kts 93°
2026-04-15 08:31 50.04384 8.54692 366 ft 26 kts 135°
2026-04-15 08:31 50.04221 8.54826 358 ft 22 kts 160°
2026-04-15 08:32 50.04123 8.54883 357 ft 5 kts 159°
2026-04-15 08:32 50.04089 8.54902 356 ft 6 kts 159°
2026-04-15 08:32 50.04041 8.54932 354 ft 7 kts 152°
2026-04-15 08:32 50.04020 8.55001 356 ft 9 kts 88°
2026-04-15 08:33 50.04046 8.55129 357 ft 15 kts 69°
2026-04-15 08:33 50.04090 8.55316 355 ft 22 kts 70°
2026-04-15 08:33 50.04149 8.55562 353 ft 26 kts 69°
2026-04-15 08:33 50.04212 8.55826 360 ft 26 kts 69°
2026-04-15 08:34 50.04277 8.56096 359 ft 27 kts 70°
2026-04-15 08:34 50.04343 8.56374 359 ft 28 kts 70°
2026-04-15 08:34 50.04410 8.56658 362 ft 28 kts 70°
2026-04-15 08:34 50.04478 8.56945 360 ft 29 kts 70°
2026-04-15 08:35 50.04549 8.57240 362 ft 26 kts 69°
2026-04-15 08:35 50.04597 8.57434 358 ft 20 kts 69°
2026-04-15 08:35 50.04649 8.57640 362 ft 20 kts 70°
2026-04-15 08:35 50.04696 8.57836 360 ft 19 kts 69°
2026-04-15 08:36 50.04775 8.57920 358 ft 11 kts 354°
2026-04-15 08:36 50.04836 8.57863 361 ft 9 kts 312°
2026-04-15 08:36 50.04864 8.57779 358 ft 8 kts 302°
2026-04-15 08:36 50.04911 8.57767 358 ft 6 kts 17°
2026-04-15 08:37 50.04940 8.57784 358 ft 3 kts 21°
2026-04-15 08:37 50.04945 8.57787 358 ft 0 kts 21°